Hourly Data Report for June 22, 2021

FISHER BRANCH (AUT)
MANITOBA
Current Station Operator: ECCC - MSC

51°05'00.100" N
97°33'16.200" W
253.00 m
50309J6
71442
WSZ

Download Data

Hourly Data (June 2021)
Hourly Data Report for June 22, 2021
TIME
LST
Temp Definition
°C
Dew Point Definition
°C
Rel Hum Definition
%
Precip. Amount Definition
mm

Wind Dir Definition
10's deg

Wind Spd Definition
km/h
Visibility Definition
km
Stn Press Definition
kPa
Hmdx Definition


Wind Chill Definition


Weather Definition


00:00 8.5 4.7 77 0.0 17 11   97.91     LegendNANA
01:00 8.8 4.6 75 0.0 17 9   97.85     LegendNANA
02:00 8.0 4.3 77 0.0 17 9   97.80     LegendNANA
03:00 8.3 4.6 78 0.0 16 8   97.71     LegendNANA
04:00 7.6 5.0 83 0.0 16 7   97.66     LegendNANA
05:00 8.4 5.1 79 0.0 15 4   97.64     LegendNANA
06:00 10.0 5.9 76 0.0 18 4   97.61     LegendNANA
07:00 13.1 6.6 65 0.0 17 6   97.62     LegendNANA
08:00 15.5 7.6 59 0.0 30 2   97.60     LegendNANA
09:00 17.7 7.3 50 0.0 3 4   97.62     LegendNANA
10:00 18.9 4.2 38 0.0 22 4   97.59     LegendNANA
11:00 20.0 3.6 34 0.0 25 7   97.57     LegendNANA
12:00 21.3 4.3 33 0.0 5 7   97.55     LegendNANA
13:00 22.8 4.4 30 0.0 26 9   97.51     LegendNANA
14:00 23.0 3.4 28 0.0 15 7   97.48     LegendNANA
15:00 22.6 3.8 29 0.0 25 11   97.46     LegendNANA
16:00 22.1 6.3 36 0.0 23 12   97.41     LegendNANA
17:00 22.1 5.2 33 0.0 23 15   97.40     LegendNANA
18:00 21.8 3.9 31 0.0 21 12   97.34     LegendNANA
19:00 21.2 5.9 37 0.0 18 9   97.27     LegendNANA
20:00 20.2 7.3 43 0.0 16 11   97.21     LegendNANA
21:00 18.8 8.5 51 0.0 15 12   97.17     LegendNANA
22:00 18.0 8.6 54 0.0 15 12   97.10     LegendNANA
23:00 17.7 8.7 56 0.0 17 14   97.01     LegendNANA

Notes on Data Quality.

Legend

  • E = Estimated
  • M = Missing
  • NA = Not Available*
  • [empty] = Indicates an unobserved value
Date modified: